Satellite: SO-50
Catalog number: 27607
Epoch time:      09344.07717404
Element set:      52
Inclination:      064.5576 deg
RA of node:       210.8886 deg
Eccentricity:    0.0045873
Arg of perigee:   157.7421 deg
Mean anomaly:     202.5663 deg
Mean motion:   14.71480282 rev/day
Decay rate:       -8.6e-07 rev/day^2
Epoch rev:           37455
Checksum:              315

Satellite: CO-55
Catalog number: 27844
Epoch time:      09344.48903894
Element set:     730
Inclination:      098.7117 deg
RA of node:       351.1652 deg
Eccentricity:    0.0010145
Arg of perigee:   000.2487 deg
Mean anomaly:     359.8700 deg
Mean motion:   14.20671676 rev/day
Decay rate:        1.8e-07 rev/day^2
Epoch rev:           33429
Checksum:              311

Satellite: CO-57
Catalog number: 27848
Epoch time:      09344.49139325
Element set:     682
Inclination:      098.7176 deg
RA of node:       350.2383 deg
Eccentricity:    0.0009815
Arg of perigee:   005.5877 deg
Mean anomaly:     354.5427 deg
Mean motion:   14.20469316 rev/day
Decay rate:        2.0e-07 rev/day^2
Epoch rev:           33425
Checksum:              326

Satellite: AO-51
Catalog number: 28375
Epoch time:      09343.54308392
Element set:     552
Inclination:      098.0527 deg
RA of node:       342.9475 deg
Eccentricity:    0.0084132
Arg of perigee:   313.7019 deg
Mean anomaly:     045.7219 deg
Mean motion:   14.40662134 rev/day
Decay rate:        2.2e-07 rev/day^2
Epoch rev:           28620
Checksum:              295

Satellite: CO-56
Catalog number: 28941
Epoch time:      09297.68475575
Element set:     556
Inclination:      098.0955 deg
RA of node:       138.9518 deg
Eccentricity:    0.0011688
Arg of perigee:   319.8691 deg
Mean anomaly:     040.7485 deg
Mean motion:   16.46998778 rev/day
Decay rate:  1.4491492e-01 rev/day^2
Epoch rev:           20790
Checksum:              407

Satellite: GENESAT1
Catalog number: 29655
Epoch time:      09344.88390773
Element set:     885
Inclination:      040.0201 deg
RA of node:       152.6975 deg
Eccentricity:    0.0005081
Arg of perigee:   006.7957 deg
Mean anomaly:     353.2929 deg
Mean motion:   15.70694619 rev/day
Decay rate:     1.6253e-04 rev/day^2
Epoch rev:           17021
Checksum:              320

Satellite: CP3
Catalog number: 31129
Epoch time:      09344.77255016
Element set:     386
Inclination:      097.9669 deg
RA of node:       029.1780 deg
Eccentricity:    0.0103382
Arg of perigee:   098.0011 deg
Mean anomaly:     263.2926 deg
Mean motion:   14.52188825 rev/day
Decay rate:        8.6e-07 rev/day^2
Epoch rev:           14051
Checksum:              307

Satellite: CO-65
Catalog number: 32785
Epoch time:      09343.86268420
Element set:     546
Inclination:      097.9256 deg
RA of node:       046.1709 deg
Eccentricity:    0.0015009
Arg of perigee:   175.9441 deg
Mean anomaly:     184.1890 deg
Mean motion:   14.81551940 rev/day
Decay rate:      -1.22e-06 rev/day^2
Epoch rev:            8745
Checksum:              326

Satellite: KKS-1
Catalog number: 33493
Epoch time:      09344.80821389
Element set:      17
Inclination:      098.0704 deg
RA of node:       097.9516 deg
Eccentricity:    0.0020716
Arg of perigee:   033.3030 deg
Mean anomaly:     326.9481 deg
Mean motion:   14.80794849 rev/day
Decay rate:       2.76e-06 rev/day^2
Epoch rev:            4760
Checksum:              312

Satellite: SOHLA-1
Catalog number: 33496
Epoch time:      09344.88566025
Element set:     970
Inclination:      098.0491 deg
RA of node:       091.5626 deg
Eccentricity:    0.0007757
Arg of perigee:   081.8543 deg
Mean anomaly:     278.3536 deg
Mean motion:   14.69459085 rev/day
Decay rate:        7.0e-07 rev/day^2
Epoch rev:            4722
Checksum:              335

/EX
SB KEPS @ AMSAT  $ORB09344.W
Orbital Elements  09344.WEATHER

HR AMSAT ORBITAL ELEMENTS FOR WEATHER SATELLITES
FROM WA5QGD FORT WORTH,TX December 10, 2009
Send Subscribe/unsubscribe to KEPS at http://www.amsat.org/mailman/listinfo/kep
BID: ORB09344.W
TO ALL RADIO AMATEURS BT

Satellite: NOAA-10
Catalog number: 16969
Epoch time:      09344.10196290
Element set:     868
Inclination:      098.6765 deg
RA of node:       009.6594 deg
Eccentricity:    0.0013007
Arg of perigee:   045.7485 deg
Mean anomaly:     314.4759 deg
Mean motion:   14.27401248 rev/day
Decay rate:        1.7e-07 rev/day^2
Epoch rev:           20860
Checksum:              321

Satellite: NOAA-11
Catalog number: 19531
Epoch time:      09344.14826873
Element set:     882
Inclination:      098.7783 deg
RA of node:       071.3402 deg
Eccentricity:    0.0011348
Arg of perigee:   330.8965 deg
Mean anomaly:     029.1565 deg
Mean motion:   14.14910909 rev/day
Decay rate:       2.22e-06 rev/day^2
Epoch rev:            9440
Checksum:              307

Satellite: NOAA-12
Catalog number: 21263
Epoch time:      09344.55473262
Element set:     366
Inclination:      098.7702 deg
RA of node:       352.6990 deg
Eccentricity:    0.0012505
Arg of perigee:   358.9761 deg
Mean anomaly:     001.1389 deg
Mean motion:   14.25606165 rev/day
Decay rate:        2.6e-07 rev/day^2
Epoch rev:           96552
Checksum:              309

